Showing default

LUCH 1, 23680

Orbit data source: Space-Track

LUCH 1, 23680 is a payload satellite owned by VKS (CIS) in GEO that was launched on Wed, 11 Oct 1995 UTC via a PROTON-K/DM-2 launch vehicle from the Tyuratam Missile And Space Complex (TTMTR). Payload-class satellites include a variety of spacecraft equipped with specific instruments for various scientific and technological missions. These include communications satellites like Starlink; space stations such as the ISS; scientific satellites like the Hubble; Earth observation satellites from companies like Planet Labs, Umbra, and HawkEye 360; GPS; miniature CubeSats for education and research; and military/defense satellites.

Not visible in the next 10 days
Identifier
23680, 1995-054A
Orbit
GEO
Country
Flag of CISCIS
Related business
Manufacturer
NPO PM
Mission
Defense Communications
Bus & Motor
KAUR-4 AL'TAIR, Unknown motor
Mass
2,400 kg wet, ~2,200 kg dry
Launch date (UTC)
1995-10-11 (31 years ago)
Launch vehicle
PROTON-K/DM-2
Launch site
Tyuratam Missile And Space Complex (TTMTR)
Object type
Payload
Rocket body
Debris
Shape & HBR
Cyl + 2 Pan + 2 Dish, 8.0 m
Radar Cross Section
40.926 m², Large (>1 m²)

Expand to show TLE details & history
Last TLE update: 2 days ago

TLE from 2 days ago
0 LUCH 1
1 23680U 95054A   26261.89174131 -.00000087  00000-0  00000-0 0  9999
2 23680  15.0479 358.4855 0006682 159.8720 233.1459  1.00271316113293
Epoch: 2026-09-18T21:24Z
TLE epoch observation values (Epoch: 2026-09-18T21:24:06.449Z)
Latitude
8.11848°
Longitude
71.68473°
Altitude
35,802.677 km
Speed
3.074 km/s
True Right ascension
02h 02m 04s
True Declination
8° 06' 37"
Sunlit
Object was in daylight at epoch
Visualization orbit readout
Latitude
Unknown
Longitude
Unknown
Altitude
Unknown
Speed
Unknown
Apparent Right ascension
Unknown
Apparent Declination
Unknown
Sunlit
N/A
Visualization observer readout
Local Sidereal Time
06:08:04
Azimuth
Unknown
Elevation
Unknown
Doppler factor
Unknown
Orbital elements
Apogee altitude
35,815.866 km
Perigee altitude
35,759.516 km
Semi-major axis
42,165.828 km
Eccentricity
0.00067
Inclination
15.0479°
RAAN
358.4855°
Arg. of periapsis
159.872°
True anomaly
233.08466°
Mean anomaly
233.1459°
Eccentric anomaly
233.11528°
Mean motion
0.25067 °/min
Orbital period
1,436.15 mins
BSTAR
0
Loading maneuver chart data...
Computing Atmospheric mass density...
Loading historical data...
Loading historical data...
Loading historical data...
Loading historical data...
Loading historical data...
Loading historical data...
Loading historical data...

Documentation

Showing up to 5 results
|